Content
SEND FEEDBACK

Daily
Averages
Monthly
Summary
United States of America

BROWNING, MONTANA


Home > North America > United States > Montana
Elevation: 4650 feet     Latitude: 48 36N     Longitude: 113 06W

WEATHER
 
SELECT A DAY
Number of Records: 28,359;   Date Range: 9/27/12 - 9/14/14
 
SHARE

PRINT THIS DATA

[ ← Previous Day ]
WEATHER ALMANAC - FEBRUARY 13, 2013
[ Next Day → ]
[ °C ]   °F
Weather ElementAverageHighLow
Wind Speed10.6 mph19.6 mph (11:10 am)
Wind Gust36.8 mph (11:40 am)
Weather ElementAverage
Wind DirectionWSW (234.3 °)

Weather ElementTotal
Precipitation---
Heating Degree Days65 (Base 65)
Averaged from 46 records on February 13, 2013
WEATHER CONDITIONS BREAKOUT
WIND DIRECTION BREAKOUT
WEATHER BY HOUR - FEBRUARY 13, 2013
[ °C ]   °F
Local TimeTemperatureDewpointHumidityBarometerVisibilityWind DirectionWind SpeedGust SpeedPrecipitationEventsConditions
12:40 AM0.0 °F0.0 °FWest (260°)9.2 mph33.4 mph
1:10 AM0.0 °F0.0 °FWest (260°)10.4 mph
1:40 AM0.0 °F0.0 °FWSW (250°)8.1 mph
2:10 AM0.0 °F0.0 °FWSW (250°)11.5 mph
2:40 AM0.0 °F0.0 °FWest (280°)5.8 mph
3:10 AM0.0 °F0.0 °FWNW (300°)4.6 mph
3:40 AM0.0 °F0.0 °FWest (280°)10.4 mph
4:10 AM0.0 °F0.0 °FWNW (290°)11.5 mph
4:40 AM0.0 °F0.0 °FWest (280°)13.8 mph
5:10 AM0.0 °F0.0 °FNW (320°)5.8 mph
5:40 AM0.0 °F0.0 °FNW (310°)8.1 mph
6:10 AM0.0 °F0.0 °FWest (280°)11.5 mph
6:40 AM0.0 °F0.0 °FWest (270°)15.0 mph
7:10 AM0.0 °F0.0 °FWest (260°)9.2 mph
7:40 AM0.0 °F0.0 °FWest (260°)12.7 mph
8:10 AM0.0 °F0.0 °FWest (270°)15.0 mph
8:40 AM0.0 °F0.0 °FWest (260°)16.1 mph31.1 mph
9:10 AM0.0 °F0.0 °FWest (260°)18.4 mph
9:40 AM0.0 °F0.0 °FWSW (250°)16.1 mph31.1 mph
10:10 AM0.0 °F0.0 °FWest (260°)17.3 mph32.2 mph
10:40 AM0.0 °F0.0 °FWest (260°)17.3 mph32.2 mph
11:10 AM0.0 °F0.0 °FWest (260°)19.6 mph32.2 mph
11:40 AM0.0 °F0.0 °FWest (260°)17.3 mph36.8 mph
12:10 PM0.0 °F0.0 °FWest (260°)16.1 mph33.4 mph
12:40 PM0.0 °F0.0 °FWest (260°)16.1 mph33.4 mph
1:10 PM0.0 °F0.0 °FWSW (250°)16.1 mph
1:40 PM0.0 °F0.0 °FWSW (240°)18.4 mph31.1 mph
2:10 PM0.0 °F0.0 °FWest (260°)13.8 mph
2:40 PM0.0 °F0.0 °FWSW (250°)18.4 mph
3:10 PM0.0 °F0.0 °FWest (260°)12.7 mph32.2 mph
3:40 PM0.0 °F0.0 °FWest (260°)9.2 mph32.2 mph
4:10 PM0.0 °F0.0 °FWSW (250°)13.8 mph
4:40 PM0.0 °F0.0 °FWest (270°)6.9 mph
5:10 PM0.0 °F0.0 °FWest (280°)8.1 mph
5:40 PM0.0 °F0.0 °FNE (50°)6.9 mph
6:10 PM0.0 °F0.0 °FENE (70°)8.1 mph
6:40 PM0.0 °F0.0 °FNNE (30°)3.5 mph
7:10 PM0.0 °F0.0 °FNorth (10°)5.8 mph
7:40 PM0.0 °F0.0 °FNorth (10°)4.6 mph
8:40 PM0.0 °F0.0 °FNNE (30°)3.5 mph
9:10 PM0.0 °F0.0 °FNNE (30°)3.5 mph
9:40 PM0.0 °F0.0 °FNorth (360°)2.3 mph
10:10 PM0.0 °F0.0 °FNW (320°)2.3 mph
10:40 PM0.0 °F0.0 °FWest (280°)4.6 mph
11:10 PM0.0 °F0.0 °FWest (260°)3.5 mph
11:40 PM0.0 °F0.0 °FWest (260°)3.5 mph
Hourly data recorded from K8S0, located miles away from Browning, Montana







STORIES FROM OUR PARTNERS